Location: *
(57.8420°S, 159.8600°W)
Time: 13:13:31
(UTC+00:00)

NOSS 0 Rocket - Pass Details

Date: 18 May 2021
Orbit: 934 x 956 km, 70.0° (Epoch: 22 June)

Event Time Altitude Azimuth Distance (km) Brightness Sun altitude
Rises 04:55:53 0° 325° (NW) 3,630 7.6 -19.1°
Reaches altitude 10° 04:58:25 10° 325° (NW) 2,687 6.8 -19.5°
Maximum altitude 05:04:41 87° 53° (NE) 967 3.9 -20.3°
Enters shadow 05:08:32 25° 140° (SE) 1,824 5.0 -20.8°
